weather.gov     
National Weather Service

Terminal Aerodrome Forecast
NWS Homepage
This page is being discontinued on March 12, 2014.
The same data is available at this site. Please update your bookmarks.
Thank you, and we apologize for the inconvenience.
Please send an email to SR-SRH.Webmaster@noaa.gov with any concerns.


Current Version
Previous Version:    01  02  03  04  05  06  07  08  09  10  11  12  13  14  15  16  17  18  19  20  21  22  23  24  25  26  27  28  29  30  
   31  32  33  34  35  36  37  38  39  40  41  42  43  44  45  46  47  48  49  50  51  52  53  54  55  56  57  58  59  60  
[Printable]
502
FTUS43 KLOT 222300
TAFMDW
TAF
KMDW 222336Z 2300/2324 20010KT P6SM SCT020 OVC040
     FM230200 20012KT 6SM BR BKN020 OVC040
     FM230600 20012KT 3SM BR BKN012 OVC020 WS020/21045KT
     FM231000 20013KT 2SM BR VCSH BKN007 OVC015
     FM231600 18014G20KT 3SM -SHRA BR BKN007 BKN015 OVC025
     FM232200 15012G20KT 2SM -RA BR OVC006=


U.S. Dept. of Commerce
NOAA National Weather Service
1325 East West Highway
Silver Spring, MD 20910
E-mail: w-nws.webmaster@noaa.gov
Page last modified: May 16, 2007
NATIONAL WEATHER SERVICE: for Safety, for Work, for Fun - FOR LIFE